TimeEST,TemperatureF,Dew PointF,Humidity,Sea Level PressureIn,VisibilityMPH,Wind Direction,Wind SpeedMPH,Gust SpeedMPH,PrecipitationIn,Events,Conditions,WindDirDegrees,DateUTC
12:26 AM,48.2,46.4,93,30.16,8.0,NNW,17.3,23.0,0.02,Rain,Light Rain,340,2012-03-09 05:26:00
12:37 AM,41.0,37.4,87,30.17,4.0,North,17.3,27.6,0.06,Rain,Rain,10,2012-03-09 05:37:00
12:51 AM,39.9,37.0,89,30.17,10.0,NW,10.4,20.7,0.08,Rain,Light Rain,320,2012-03-09 05:51:00
1:14 AM,39.2,37.4,93,30.17,6.0,North,10.4,-,0.00,Rain,Light Rain,350,2012-03-09 06:14:00
1:46 AM,39.2,35.6,87,30.18,10.0,NNW,9.2,-,0.01,,Overcast,340,2012-03-09 06:46:00
1:51 AM,39.0,35.1,86,30.17,10.0,North,10.4,-,0.01,,Overcast,350,2012-03-09 06:51:00
2:15 AM,39.2,35.6,87,30.18,10.0,North,6.9,-,N/A,,Overcast,360,2012-03-09 07:15:00
2:43 AM,39.2,35.6,87,30.18,10.0,NNW,5.8,-,N/A,,Overcast,340,2012-03-09 07:43:00
2:51 AM,39.0,35.1,86,30.18,10.0,NNW,6.9,-,N/A,,Overcast,340,2012-03-09 07:51:00
3:51 AM,37.9,34.0,86,30.21,10.0,NNW,10.4,-,N/A,,Scattered Clouds,330,2012-03-09 08:51:00
4:16 AM,37.4,33.8,87,30.20,10.0,NNW,9.2,-,N/A,,Mostly Cloudy,330,2012-03-09 09:16:00
4:35 AM,37.4,33.8,87,30.20,10.0,WNW,8.1,-,N/A,,Overcast,300,2012-03-09 09:35:00
4:48 AM,35.6,32.0,87,30.21,10.0,WNW,11.5,-,N/A,,Overcast,300,2012-03-09 09:48:00
4:51 AM,36.0,30.9,82,30.23,10.0,WNW,11.5,-,N/A,,Overcast,290,2012-03-09 09:51:00
5:51 AM,35.1,30.0,82,30.26,10.0,NW,11.5,-,N/A,,Overcast,310,2012-03-09 10:51:00
6:51 AM,35.1,28.9,78,30.27,10.0,NW,11.5,-,N/A,,Overcast,310,2012-03-09 11:51:00
7:51 AM,35.1,28.9,78,30.30,10.0,NW,9.2,-,N/A,,Overcast,320,2012-03-09 12:51:00
8:51 AM,34.0,26.1,73,30.34,10.0,NW,12.7,19.6,N/A,,Mostly Cloudy,310,2012-03-09 13:51:00
9:16 AM,35.6,26.6,70,30.31,10.0,NW,11.5,20.7,N/A,,Scattered Clouds,310,2012-03-09 14:16:00
9:51 AM,36.0,26.1,67,30.33,10.0,WNW,8.1,-,N/A,,Clear,300,2012-03-09 14:51:00
10:51 AM,39.9,23.0,51,30.32,10.0,WNW,10.4,19.6,N/A,,Clear,290,2012-03-09 15:51:00
11:51 AM,42.1,21.9,45,30.31,10.0,WNW,15.0,25.3,N/A,,Clear,290,2012-03-09 16:51:00
12:51 PM,45.0,23.0,42,30.31,10.0,WNW,16.1,23.0,N/A,,Clear,290,2012-03-09 17:51:00
1:51 PM,46.0,21.9,39,30.28,10.0,NW,18.4,26.5,N/A,,Clear,310,2012-03-09 18:51:00
2:51 PM,46.9,23.0,39,30.28,10.0,NNW,19.6,28.8,N/A,,Clear,330,2012-03-09 19:51:00
3:51 PM,48.0,24.1,39,30.28,10.0,WNW,12.7,25.3,N/A,,Clear,300,2012-03-09 20:51:00
4:51 PM,48.0,21.0,34,30.28,10.0,NW,18.4,26.5,N/A,,Clear,320,2012-03-09 21:51:00
5:51 PM,45.0,19.9,37,30.30,10.0,NW,16.1,23.0,N/A,,Clear,320,2012-03-09 22:51:00
6:51 PM,41.0,19.9,43,30.34,10.0,NNW,8.1,-,N/A,,Clear,330,2012-03-09 23:51:00
7:51 PM,39.0,21.9,50,30.38,10.0,NNW,12.7,19.6,N/A,,Clear,330,2012-03-10 00:51:00
8:51 PM,37.0,21.0,52,30.41,10.0,North,17.3,-,N/A,,Clear,350,2012-03-10 01:51:00
9:51 PM,35.1,19.0,52,30.43,10.0,NNW,15.0,20.7,N/A,,Clear,340,2012-03-10 02:51:00
10:51 PM,33.1,17.1,52,30.43,10.0,NW,9.2,-,N/A,,Clear,320,2012-03-10 03:51:00
11:51 PM,30.9,17.1,57,30.44,10.0,NW,5.8,-,N/A,,Clear,320,2012-03-10 04:51:00